TimeMDT,TemperatureF,Dew PointF,Humidity,Sea Level PressureIn,VisibilityMPH,Wind Direction,Wind SpeedMPH,Gust SpeedMPH,PrecipitationIn,Events,Conditions,WindDirDegrees,DateUTC
12:55 AM,48.9,37.0,64,30.20,10.0,Calm,Calm,-,N/A,,Clear,0,2013-05-11 06:55:00
1:55 AM,46.9,37.9,71,30.20,10.0,Calm,Calm,-,N/A,,Clear,0,2013-05-11 07:55:00
2:55 AM,45.0,37.0,74,30.20,10.0,Calm,Calm,-,N/A,,Partly Cloudy,0,2013-05-11 08:55:00
3:55 AM,55.0,36.0,49,30.19,10.0,NNE,12.7,-,N/A,,Clear,30,2013-05-11 09:55:00
4:55 AM,55.0,34.0,45,30.19,10.0,NE,10.4,-,N/A,,Partly Cloudy,50,2013-05-11 10:55:00
5:55 AM,50.0,36.0,59,30.19,10.0,NNE,6.9,-,N/A,,Clear,30,2013-05-11 11:55:00
6:55 AM,54.0,36.0,51,30.17,10.0,NE,10.4,-,N/A,,Clear,40,2013-05-11 12:55:00
7:55 AM,55.4,37.4,51,30.20,10.0,NE,11.5,-,N/A,,Clear,50,2013-05-11 13:55:00
8:55 AM,62.1,37.9,41,30.18,10.0,NE,12.7,-,N/A,,Clear,50,2013-05-11 14:55:00
9:55 AM,60.1,37.9,44,30.18,10.0,NNE,8.1,-,N/A,,Mostly Cloudy,30,2013-05-11 15:55:00
10:55 AM,64.9,39.0,39,30.17,10.0,Calm,Calm,-,N/A,,Mostly Cloudy,0,2013-05-11 16:55:00
11:55 AM,68.0,41.0,37,30.15,10.0,Calm,Calm,-,N/A,,Clear,0,2013-05-11 17:55:00
12:55 PM,73.0,42.1,33,30.12,10.0,South,10.4,-,N/A,,Clear,170,2013-05-11 18:55:00
1:55 PM,75.0,42.1,31,30.09,10.0,South,11.5,-,N/A,,Clear,170,2013-05-11 19:55:00
2:55 PM,75.9,43.0,31,30.07,10.0,SSE,11.5,-,N/A,,Partly Cloudy,160,2013-05-11 20:55:00
3:55 PM,73.0,46.0,38,30.05,10.0,South,10.4,-,0.00,,Scattered Clouds,180,2013-05-11 21:55:00
4:55 PM,77.0,48.0,36,30.01,10.0,SSE,9.2,-,0.00,,Mostly Cloudy,150,2013-05-11 22:55:00
5:55 PM,80.1,44.1,28,29.99,10.0,Calm,Calm,-,N/A,,Scattered Clouds,0,2013-05-11 23:55:00
6:55 PM,82.0,37.0,20,29.98,10.0,West,10.4,-,N/A,,Mostly Cloudy,270,2013-05-12 00:55:00
7:55 PM,77.0,30.2,18,30.02,10.0,WNW,11.5,-,N/A,,Clear,290,2013-05-12 01:55:00
8:55 PM,72.0,36.0,27,30.00,10.0,West,6.9,-,N/A,,Clear,270,2013-05-12 02:55:00
9:55 PM,63.0,39.9,43,30.03,10.0,SE,3.5,-,N/A,,Clear,130,2013-05-12 03:55:00
10:55 PM,57.0,39.9,53,30.03,10.0,Calm,Calm,-,N/A,,Clear,0,2013-05-12 04:55:00
11:55 PM,55.0,41.0,59,30.04,10.0,SSE,4.6,-,N/A,,Clear,160,2013-05-12 05:55:00